Location: Stara Lesna
(49.1528°N, 20.2911°E)
Time: 18:52:25
(UTC+02:00)

ALOS 2 - Pass Details

Date: 13 July 2020
Orbit: 630 x 632 km, 97.9° (Epoch: 10 August)

Event Time Altitude Azimuth Distance (km) Brightness Sun altitude
Exits shadow 00:46:56 27° 233° (SW) 1,209 3.7 -19.1°
Maximum altitude 00:48:09 32° 264° (W) 1,090 3.7 -19.0°
Drops below altitude 10° 00:52:07 10° 328° (NNW) 2,025 6.0 -19.0°
Sets 00:54:31 0° 339° (NNW) 2,938 7.2 -19.0°
